{"data":{"norad_id":67139,"epoch":"2026-05-25T02:08:23.589888Z","epoch_age_seconds":67084,"freshness":"FRESH","line1":"1 67139U 25301G   26145.08916192  .00001743  00000+0  27880-3 0  9993","line2":"2 67139  51.8991  82.5613 0001833 120.0766 240.0376 14.76455603 25395","mean_motion":14.76455603,"eccentricity":0.0001833,"inclination_deg":51.8991,"raan_deg":82.5613,"arg_perigee_deg":120.0766,"mean_anomaly_deg":240.0376,"bstar":0.0002788,"rev_number":2539,"period_min":97.530870354251,"perigee_km":639.2479267376,"apogee_km":641.82097169088,"semimajor_km":7018.6714492142,"source":"CELESTRAK","updated_at":"2026-05-25T13:38:06.749570Z"}}